ORBCOMM-X 1 21576U 91050C 25340.71791149 .00000720 00000+0 22582-3 0 9999 2 21576 98.3238 43.6300 0004172 40.2364 319.9135 14.43428174807009 ORBCOMM FM01 1 23545U 95017A 25340.79044048 .00011565 00000+0 11187-2 0 9998 2 23545 69.9629 2.9426 0003305 343.7435 16.3614 14.92948138638248 ORBCOMM FM02 1 23546U 95017B 25340.53674183 .00013063 00000+0 12144-2 0 9999 2 23546 69.9645 22.2429 0004228 3.1358 356.9825 14.94475105637877 ORBCOMM FM08 1 25112U 97084A 25340.81960218 .00003622 00000+0 10344-2 0 9994 2 25112 45.0129 258.7427 0006888 33.2534 326.8749 14.46560954466367 ORBCOMM FM10 1 25113U 97084B 25340.89658001 .00002856 00000+0 82863-3 0 9991 2 25113 45.0143 261.0708 0005935 1.2207 358.8659 14.46310740641510 ORBCOMM FM11 1 25114U 97084C 25340.51707275 .00003263 00000+0 94582-3 0 9993 2 25114 45.0132 263.8462 0006772 1.1136 358.9729 14.46051380466411 ORBCOMM FM12 1 25115U 97084D 25340.47712384 .00003391 00000+0 98089-3 0 9994 2 25115 45.0140 263.7707 0005965 358.1704 1.9125 14.46074367466203 ORBCOMM FM09 1 25116U 97084E 25340.87104195 .00003075 00000+0 89612-3 0 9995 2 25116 45.0143 262.9983 0007157 351.1373 8.9351 14.45922050466460 ORBCOMM FM05 1 25117U 97084F 25340.91012682 .00003163 00000+0 90664-3 0 9997 2 25117 45.0138 258.3466 0003517 356.6969 3.3859 14.46675759465617 ORBCOMM FM06 1 25118U 97084G 25340.82384521 .00003618 00000+0 10276-2 0 9997 2 25118 45.0132 258.2931 0002476 350.6927 52.4061 14.46837592466525 ORBCOMM FM07 1 25119U 97084H 25340.75894826 .00003329 00000+0 94861-3 0 9996 2 25119 45.0126 259.3561 0004379 355.1913 4.8896 14.46847072466508 ORBCOMM FM03 1 25158U 98007B 25340.90105690 .00002260 00000+0 82816-3 0 9996 2 25158 107.9635 130.4934 0046305 304.3980 55.2786 14.35000851448818 ORBCOMM FM04 1 25159U 98007C 25340.92546918 .00002275 00000+0 83102-3 0 9996 2 25159 107.9627 133.8819 0042187 301.5633 58.1392 14.35245311449006 ORBCOMM FM17 1 25413U 98046A 25340.88185798 .00001532 00000+0 57639-3 0 9993 2 25413 44.9923 162.3415 0002435 13.7348 346.3565 14.35515172427986 ORBCOMM FM18 1 25414U 98046B 25340.68827628 .00002937 00000+0 98564-3 0 9999 2 25414 44.9927 75.9608 0003078 90.7421 269.3780 14.39125837429091 ORBCOMM FM19 1 25415U 98046C 25340.75951752 .00002892 00000+0 97478-3 0 9997 2 25415 44.9932 77.8857 0001853 94.0003 74.9811 14.38945868429051 ORBCOMM FM20 1 25416U 98046D 25340.55559301 .00001926 00000+0 68225-3 0 9995 2 25416 44.9939 84.7372 0001338 184.7506 175.3330 14.37641205429061 ORBCOMM FM16 1 25417U 98046E 25340.75595094 .00002555 00000+0 85708-3 0 9991 2 25417 44.9935 73.0041 0003373 114.1793 245.9408 14.39503204429112 ORBCOMM FM15 1 25418U 98046F 25340.70626842 .00002615 00000+0 88249-3 0 9993 2 25418 44.9964 78.9115 0003210 115.6529 244.4652 14.39131224429095 ORBCOMM FM14 1 25419U 98046G 25340.67820016 .00002784 00000+0 92869-3 0 9999 2 25419 44.9953 76.7580 0001942 125.6423 234.4607 14.39547908429066 ORBCOMM FM13 1 25420U 98046H 25340.67010387 .00002402 00000+0 83026-3 0 9995 2 25420 44.9967 86.5176 0003667 80.0526 280.0736 14.38173912428065 ORBCOMM FM21 1 25475U 98053A 25340.92751223 .00001482 00000+0 53431-3 0 9996 2 25475 45.0065 171.2198 0001605 36.5497 323.5460 14.37774639422103 ORBCOMM FM22 1 25476U 98053B 25340.48592779 .00001963 00000+0 67677-3 0 9998 2 25476 45.0056 166.7047 0003088 23.9515 336.1477 14.38940207422086 ORBCOMM FM23 1 25477U 98053C 25340.90361406 .00001687 00000+0 59908-3 0 9998 2 25477 45.0063 173.1840 0002502 22.4157 337.6800 14.38011921422251 ORBCOMM FM24 1 25478U 98053D 25340.84053391 .00001955 00000+0 67836-3 0 9990 2 25478 45.0055 170.1768 0002287 33.1314 326.9678 14.38628267422300 ORBCOMM FM25 1 25479U 98053E 25340.81544498 .00002024 00000+0 70105-3 0 9992 2 25479 45.0052 168.5931 0004636 38.7392 321.3788 14.38598791422598 ORBCOMM FM26 1 25480U 98053F 25340.87452410 .00001568 00000+0 56502-3 0 9999 2 25480 45.0046 166.0591 0006530 53.3765 306.7683 14.37574423422495 ORBCOMM FM27 1 25481U 98053G 25340.79921548 .00001983 00000+0 68733-3 0 9994 2 25481 45.0037 168.8063 0001068 66.8357 293.2604 14.38631278422527 ORBCOMM FM28 1 25482U 98053H 25340.74782379 .00002444 00000+0 83395-3 0 9991 2 25482 45.0040 106.3329 0004216 104.0613 256.0705 14.38764308423208 ORBCOMM FM30 1 25980U 99065A 25340.77525602 .00001996 00000+0 70397-3 0 9994 2 25980 45.0326 352.5535 0005670 174.9882 185.1025 14.37743404359287 ORBCOMM FM31 1 25981U 99065B 25340.40912224 .00002018 00000+0 71229-3 0 9996 2 25981 45.0239 347.7425 0004252 210.7099 149.3501 14.37669315358782 ORBCOMM FM32 1 25982U 99065C 25340.77798076 .00001998 00000+0 71879-3 0 9991 2 25982 45.0168 3.7274 0006488 195.9806 164.0838 14.36726954359418 ORBCOMM FM33 1 25983U 99065D 25340.81751390 .00002214 00000+0 73334-3 0 9995 2 25983 45.0280 257.9444 0007617 221.5322 138.4949 14.40508790360950 ORBCOMM FM36 1 25984U 99065E 25340.72708909 .00002553 00000+0 87070-3 0 9992 2 25984 45.0394 352.9206 0000564 72.9103 287.1808 14.38684349359268 ORBCOMM FM35 1 25985U 99065F 25340.76395187 .00002087 00000+0 73614-3 0 9998 2 25985 45.0399 359.1814 0004428 212.6010 147.4566 14.37596078359619 ORBCOMM FM34 1 25986U 99065G 25340.45237421 .00001891 00000+0 67195-3 0 9990 2 25986 45.0400 1.1224 0002580 163.9741 196.1190 14.37548301359685 ORBCOMM FM38 1 33060U 08031A 25340.91546631 .00003318 00000+0 43811-3 0 9997 2 33060 48.4375 211.6034 0004406 67.1789 292.9592 14.82226592940365 ORBCOMM FM41 1 33061U 08031B 25340.97114448 .00003333 00000+0 44453-3 0 9991 2 33061 48.4414 219.7283 0003657 49.2014 324.2743 14.81784556939851 ORBCOMM FM29 1 33062U 08031C 25340.89027684 .00003632 00000+0 48026-3 0 9990 2 33062 48.4371 227.6927 0005380 48.1335 51.1302 14.81928758939756 ORBCOMM FM39 1 33063U 08031D 25340.87417062 .00003409 00000+0 46925-3 0 9990 2 33063 48.4394 253.9940 0006496 16.4132 343.6993 14.80371069939370 ORBCOMM FM37 1 33064U 08031E 25340.97302104 .00003260 00000+0 44787-3 0 9991 2 33064 48.4383 241.7760 0004952 37.2367 57.8839 14.80571763939646 ORBCOMM FM40 1 33065U 08031F 25340.88129278 .00004031 00000+0 51600-3 0 9990 2 33065 48.4396 223.2333 0005861 54.9840 45.1857 14.83064223939780 VESSELSAT 1 1 37840U 11058C 25340.74898509 .00000435 00000+0 92239-4 0 9991 2 37840 19.9605 129.6801 0013577 285.1380 74.7523 14.11396869730715 ORBCOMM FM109 1 40086U 14040A 25340.56222542 .00001600 00000+0 37730-3 0 9998 2 40086 47.0037 282.0091 0001403 24.7300 335.3653 14.58526001606223 ORBCOMM FM107 1 40087U 14040B 25340.85582693 .00001576 00000+0 37146-3 0 9990 2 40087 47.0055 281.5132 0001593 326.6263 33.4522 14.58603699606349 ORBCOMM FM106 1 40088U 14040C 25340.70370292 .00002685 00000+0 47338-3 0 9991 2 40088 47.0590 90.4139 0016312 151.9190 208.2584 14.70002787608854 ORBCOMM FM111 1 40089U 14040D 25340.91176090 .00005171 00000+0 58079-3 0 9992 2 40089 47.0007 275.8350 0029426 300.1116 59.6865 14.87653562615936 ORBCOMM FM104 1 40090U 14040E 25340.96630419 .00001546 00000+0 37744-3 0 9997 2 40090 47.0059 316.6909 0017149 275.2323 84.6605 14.56992534605817 ORBCOMM FM103 1 40091U 14040F 25340.90629849 .00001353 00000+0 32472-3 0 9996 2 40091 47.0059 281.9296 0002163 333.9926 26.0850 14.58518465589319 ORBCOMM FM114 1 41179U 15081A 25340.85469971 .00001176 00000+0 28675-3 0 9995 2 41179 47.0010 191.1302 0001649 53.1266 306.9771 14.58550998529672 ORBCOMM FM119 1 41180U 15081B 25340.78199331 .00001522 00000+0 36080-3 0 9993 2 41180 46.9999 100.8315 0000795 168.5080 191.5824 14.58485207530911 ORBCOMM FM105 1 41181U 15081C 25340.84032720 .00000658 00000+0 22984-3 0 9996 2 41181 47.0000 122.3662 0001428 355.5399 4.5469 14.45395649525723 ORBCOMM FM110 1 41182U 15081D 25340.84472805 .00001346 00000+0 32299-3 0 9994 2 41182 47.0004 190.6834 0002791 266.9686 93.0880 14.58562230529545 ORBCOMM FM118 1 41183U 15081E 25340.94768254 .00001020 00000+0 25351-3 0 9992 2 41183 47.0026 190.4930 0002996 230.5810 129.4811 14.58560350529660 ORBCOMM FM112 1 41184U 15081F 25340.81339187 .00002531 00000+0 57493-3 0 9998 2 41184 46.9978 99.6651 0000891 26.2081 333.8850 14.58561290530869 ORBCOMM FM113 1 41185U 15081G 25340.72211971 .00001966 00000+0 45479-3 0 9991 2 41185 46.9999 100.4503 0000524 48.8832 311.2099 14.58552901530838 ORBCOMM FM115 1 41186U 15081H 25340.93848233 .00001635 00000+0 35061-3 0 9991 2 41186 46.9992 297.7312 0000409 210.1712 149.9152 14.62902655533067 ORBCOMM FM108 1 41187U 15081J 25340.89009809 .00002073 00000+0 47797-3 0 9991 2 41187 47.0054 11.1616 0002265 2.7364 357.3534 14.58534236532007 ORBCOMM FM117 1 41188U 15081K 25340.78754393 .00001950 00000+0 45144-3 0 9992 2 41188 47.0022 10.3477 0002455 13.6304 346.4648 14.58559778532031 ORBCOMM FM116 1 41189U 15081L 25340.76782715 .00001493 00000+0 35435-3 0 9994 2 41189 47.0015 100.2100 0002412 244.9431 115.1204 14.58551404530843